User: anonymous   Login
Location: Ciudad Delicias
(28.2170°N, 105.4670°W)
Time: 13:17:37
(UTC-07:00)
Language:

ETS-7 - Orbit

View from above orbital plane
View from above orbital plane
View from above satellite
View from above satellite

Ground track
Ground track

The orbit data is extracted from the following two-line orbital elements,

1 25064U 97074B   15062.26089343  .00050613  00000-0  52306-3 0  9997
2 25064 034.9580 358.2301 0004452 318.6739 167.5623 15.63613291961511
Epoch (UTC): 03 March 2015 06:15:41
Eccentricity: 0.0004452
inclination: 34.9580°
perigee height: 374 km
apogee height: 380 km
right ascension of ascending node: 358.2301°
argument of perigee: 318.6739°
revolutions per day: 15.63613291
mean anomaly at epoch: 167.5623°
orbit number at epoch: 96151

The dashed part of the orbit path shows where the satellite is in the earth's shadow,  

DLR